Retour au catalogue

COSMOS 2301

ActifMilitairePO
NORAD 23443·PAYLOAD·🇷🇺 Russia

Lancé Dec 26, 1994 depuis Plesetsk Cosmodrome

Loading…

Prochains Passages (prochaines 24 heures)

TLE

FraisSource: Space-Track

Époque: Sep 14, 2026, 00:46 UTC

1 23443U 94086C   26257.03235554  .00000006  00000-0 -25373-4 0  9993
2 23443  82.5666 264.0679 0001230 356.7187  30.3791 12.62228945461115

Suivez COSMOS 2301 en temps réel avec AllMySat

Download on the App Store